Tracking 22879 objects as of 21-Apr-2021
HD Live streaming from Space Station
objects crossing your sky now

COSMOS 1058

Track COSMOS 1058 now!
10-day predictions
COSMOS 1058 is classified as:


NORAD ID: 11135
Int'l Code: 1978-109H
Perigee: 1,487.3 km
Apogee: 1,544.7 km
Inclination: 74.0 °
Period: 116.2 minutes
Semi major axis: 7886 km
RCS: 0.7109 m2 (medium)
Launch date: December 5, 1978
Source: Commonwealth of Independent States (former USSR) (CIS)
Launch site: PLESETSK MISSILE AND SPACE COMPLEX (PKMTR)
aabbcc
Your satellite tracking list
Your tracking list is empty




NASA's NSSDC Master Catalog

Two Line Element Set (TLE):
1 11135U 78109H   21110.92961133 -.00000012  00000-0  24964-4 0  9998
2 11135  74.0178 337.0075 0036393 136.2319 330.7321 12.39470365917370
Source of the keplerian elements: AFSPC